Location: Street
(51.1247°N, 2.7429°W)
Time: 03:03:00
(UTC+00:00)

deb Explorer IX - Pass Details

Date: 08 December 2020
Orbit: 536 x 1104 km, 38.8° (Epoch: 20 January)

Event Time Altitude Azimuth Distance (km) Brightness Sun altitude
Rises 14:41:37 0° 245° (WSW) 3,895 ? 8.3°
Reaches altitude 10° 14:44:50 10° 235° (SW) 2,901 ? 8.0°
Maximum altitude 14:50:41 28° 179° (S) 1,784 ? 7.4°
Drops below altitude 10° 14:56:03 10° 123° (ESE) 2,639 ? 6.9°
Sets 14:58:50 0° 112° (ESE) 3,489 ? 6.6°
